User: anonymous   Login
Location: Unspecified
(0.0000°N, 0.0000°E)
Time: 07:46:48
(UTC+00:00)
Language:

Explorer 31 - Orbit

View from above orbital plane
View from above orbital plane
View from above satellite
View from above satellite

Ground track
Ground track

The orbit data is extracted from the following two-line orbital elements,

1  1806U 65098B   18112.90948673 +.00000216 +00000-0 +71882-4 0  9991
2  1806 079.7978 272.0760 1439405 194.7114 160.7493 12.05531914289708
Epoch (UTC): 22 April 2018 21:49:39
Eccentricity: 0.1439405
inclination: 79.7978°
perigee height: 500 km
apogee height: 2812 km
right ascension of ascending node: 272.0760°
argument of perigee: 194.7114°
revolutions per day: 12.05531914
mean anomaly at epoch: 160.7493°
orbit number at epoch: 28970

The dashed part of the orbit path shows where the satellite is in the earth's shadow,  

DLR